Flag for Canada Weather past 2 weeks in Oakville, Ontario, Canada

Now
43 °F

Quite cool.


Feels Like: 36 °F
Forecast: 42 / 54 °F
Wind: 15 mph from North

Location: Burlington Piers

Current Time: Oct 22, 2014 at 10:46:14 AM

Latest Report: Oct 22, 2014 at 10:00 AM


Visibility: N/A

Pressure: 30.28 "Hg

Humidity: 72%

Dew point: 35 °F

Location of OakvilleLocation

Historic Weather in Oakville — Graph

°F

Oakville temperature yesterday

Maximum temperature yesterday: 54 °F (at 12:00 AM)
Minimum temperature yesterday: 45 °F (at 10:00 PM)
Average temperature yesterday: 50 °F

Past Weeks' High & Low Weather Summary

 TemperatureHumidityPressure
High76 °F (Oct 14, 3:00 PM)100% (Oct 16, 10:00 AM)30.29 "Hg (Oct 16, 10:00 AM)
Low40 °F (Oct 19, 10:00 AM)35% (Oct 11, 5:00 PM)29.48 "Hg (Oct 17, 10:00 PM)
Average53 °F74%29.91 "Hg
* Reported Oct 7 9:00 AM — Oct 22 9:00 AM, Oakville, Weather by CustomWeather, © 2014

Note: Actual official high and low records may vary slightly from our data, if they occured in-between our weather recording intervals... More about our weather records

Advertising

Oakville weather history for previous 24 hours

 ConditionsComfort  
Time TempWeatherWind HumidityBarometerVisibility
9:00 AM
Oct 22
42 °FQuite cool.15 mph73%30.27 "HgN/A
8:00 AM42 °FQuite cool.16 mph72%30.25 "HgN/A
7:00 AM43 °FQuite cool.14 mph73%30.24 "HgN/A
6:00 AM43 °FQuite cool.14 mph73%30.22 "HgN/A
5:00 AM43 °FQuite cool.14 mph75%30.20 "HgN/A
4:00 AM45 °FQuite cool.15 mph72%30.19 "HgN/A
3:00 AM45 °FCool.13 mph71%30.18 "HgN/A
2:00 AM45 °FCool.12 mph76%30.17 "HgN/A
1:00 AM45 °FQuite cool.12 mph79%30.17 "HgN/A
12:00 AM44 °FQuite cool.10 mph87%30.17 "HgN/A
11:00 PM
Oct 21
45 °FQuite cool.10 mph85%30.16 "HgN/A
10:00 PM45 °FQuite cool.12 mph87%30.15 "HgN/A
9:00 PM45 °FCool.17 mph87%30.12 "HgN/A
8:00 PM47 °FCool.15 mph83%30.09 "HgN/A
7:00 PM47 °FCool.15 mph85%30.06 "HgN/A
6:00 PM46 °FCool.12 mph90%30.03 "HgN/A
5:00 PM46 °FCool.12 mph90%30.00 "HgN/A
4:00 PM49 °FCool.15 mph79%29.97 "HgN/A
3:00 PM48 °FCool.16 mph85%29.94 "HgN/A
2:00 PM48 °FCool.17 mph88%29.92 "HgN/A
1:00 PM49 °FCool.15 mph90%29.90 "HgN/A
12:00 PM51 °FCool.5 mph91%29.88 "HgN/A
11:00 AM51 °FCool.2 mph89%29.86 "HgN/A
10:00 AM49 °FCool.3 mph87%29.85 "HgN/A
Weather by CustomWeather, © 2014

See weather overviewHow to use our weather pages